Weather History for Tehachapi, CA

Change the Weather History Date:

Friday, May 24, 2013

  Actual Average Record
Temperature  
Mean Temperature 54 °F -  
Max Temperature 66 °F 72 °F 75 °F (2014)
Min Temperature 41 °F 47 °F 41 °F (2013)
Degree Days  
Heating Degree Days 12    
Growing Degree Days 4 (Base 50)    
Moisture  
Dew Point 28 °F    
Average Humidity 37    
Maximum Humidity 57    
Minimum Humidity 24    
Precipitation  
Precipitation 0.00 in - - ()
Sea Level Pressure  
Sea Level Pressure 30.00 in    
Wind  
Wind Speed 10 mph (WNW)    
Max Wind Speed 18 mph    
Max Gust Speed 23 mph    
Visibility 10 miles    
Events      
Averages and records for this station are not official NWS values.
T = Trace of Precipitation, MM = Missing Value Source: NWS Daily Summary

Daily Weather History Graph

Daily Weather History Graph

Search for Another Location

Airport:

Trip Planner

Search our weather history database for the weather conditions in past years. The results will help you decide how hot, cold, wet, or windy it might be!

Date:

Astronomy

May. 24, 2013 Rise Set
Actual Time 5:43 AM PDT 7:57 PM PDT
Civil Twilight 5:15 AM PDT 8:26 PM PDT
Nautical Twilight 4:39 AM PDT 9:01 PM PDT
Astronomical Twilight 4:01 AM PDT 9:40 PM PDT
Moon 7:46 PM PDT (5/24) 5:18 AM PDT (5/24)
Length of Visible Light 15h 11m
Length of Day
14h 13m
Full, 100% of the Moon is Illuminated
May 24
Full
May 24
Full
May 31
Last Quarter
Jun 8
New
Jun 16
First Quarter

Hourly Weather History & Observations

Time (PDT) Temp. Windchill Dew Point Humidity Pressure Visibility Wind Dir Wind Speed Gust Speed Precip Events Conditions
12:15 AM 44.6 °F 38.8 °F 23.0 °F 43% 30.00 in 10.0 mi West 11.5 mph - N/A   Clear
12:35 AM 46.4 °F 41.1 °F 24.8 °F 43% 30.00 in 10.0 mi West 11.5 mph - N/A   Clear
12:55 AM 44.6 °F 40.7 °F 24.8 °F 46% 30.00 in 10.0 mi WNW 6.9 mph - N/A   Clear
1:15 AM 44.6 °F 39.7 °F 24.8 °F 46% 30.00 in 10.0 mi WNW 9.2 mph - N/A   Clear
1:35 AM 44.6 °F 40.2 °F 24.8 °F 46% 30.00 in 10.0 mi WNW 8.1 mph - N/A   Clear
1:55 AM 44.6 °F 39.7 °F 26.6 °F 49% 30.00 in 10.0 mi WNW 9.2 mph - N/A   Clear
2:15 AM 44.6 °F 41.4 °F 24.8 °F 46% 30.00 in 10.0 mi WNW 5.8 mph - N/A   Clear
2:35 AM 42.8 °F 38.0 °F 24.8 °F 49% 29.99 in 10.0 mi West 8.1 mph - N/A   Clear
2:55 AM 44.6 °F 39.2 °F 24.8 °F 46% 29.99 in 10.0 mi West 10.4 mph - N/A   Clear
3:15 AM 42.8 °F 38.0 °F 24.8 °F 49% 29.99 in 10.0 mi West 8.1 mph - N/A   Clear
3:35 AM 44.6 °F 40.7 °F 26.6 °F 49% 29.99 in 10.0 mi WNW 6.9 mph - N/A   Clear
3:55 AM 41.0 °F 37.1 °F 24.8 °F 53% 29.99 in 10.0 mi WNW 5.8 mph - N/A   Clear
4:15 AM 41.0 °F 37.1 °F 24.8 °F 53% 29.99 in 10.0 mi WNW 5.8 mph - N/A   Clear
4:35 AM 41.0 °F 36.4 °F 26.6 °F 57% 29.99 in 10.0 mi WNW 6.9 mph - N/A   Clear
4:55 AM 41.0 °F 38.0 °F 26.6 °F 57% 29.99 in 10.0 mi WNW 4.6 mph - N/A   Clear
5:15 AM 41.0 °F - 24.8 °F 53% 30.00 in 10.0 mi Calm Calm - N/A   Clear
5:35 AM 41.0 °F 37.1 °F 24.8 °F 53% 30.00 in 10.0 mi NW 5.8 mph - N/A   Clear
5:55 AM 41.0 °F 39.0 °F 24.8 °F 53% 30.00 in 10.0 mi NW 3.5 mph - N/A   Clear
6:15 AM 41.0 °F - 24.8 °F 53% 30.00 in 10.0 mi Calm Calm - N/A   Clear
6:35 AM 41.0 °F - 24.8 °F 53% 30.01 in 10.0 mi Calm Calm - N/A   Clear
6:55 AM 46.4 °F - 26.6 °F 46% 30.01 in 10.0 mi Calm Calm - N/A   Clear
7:15 AM 48.2 °F - 26.6 °F 43% 30.01 in 10.0 mi WNW 3.5 mph - N/A   Clear
7:35 AM 51.8 °F - 24.8 °F 35% 30.01 in 9.0 mi West 5.8 mph - N/A   Clear
7:55 AM 53.6 °F - 24.8 °F 33% 30.01 in 10.0 mi WNW 8.1 mph - N/A   Clear
8:15 AM 53.6 °F - 24.8 °F 33% 30.01 in 10.0 mi NW 9.2 mph - N/A   Clear
8:35 AM 55.4 °F - 24.8 °F 31% 30.02 in 10.0 mi WNW 11.5 mph - N/A   Clear
8:55 AM 57.2 °F - 24.8 °F 29% 30.02 in 10.0 mi NW 10.4 mph 16.1 mph N/A   Clear
9:15 AM 57.2 °F - 24.8 °F 29% 30.02 in 10.0 mi WNW 12.7 mph - N/A   Clear
9:35 AM 57.2 °F - 26.6 °F 31% 30.01 in 10.0 mi NW 11.5 mph - N/A   Clear
9:55 AM 59.0 °F - 26.6 °F 29% 30.01 in 10.0 mi NW 12.7 mph - N/A   Clear
10:15 AM 59.0 °F - 26.6 °F 29% 30.01 in 10.0 mi NW 13.8 mph - N/A   Clear
10:35 AM 62.6 °F - 26.6 °F 26% 30.01 in 10.0 mi NNW 13.8 mph 18.4 mph N/A   Clear
10:55 AM 62.6 °F - 26.6 °F 26% 30.01 in 10.0 mi NW 11.5 mph - N/A   Clear
11:15 AM 64.4 °F - 26.6 °F 24% 30.01 in 10.0 mi NW 10.4 mph - N/A   Clear
11:35 AM 64.4 °F - 28.4 °F 26% 30.01 in 10.0 mi NW 15.0 mph - N/A   Clear
11:55 AM 64.4 °F - 28.4 °F 26% 30.01 in 10.0 mi NW 15.0 mph 21.9 mph N/A   Clear
12:15 PM 64.4 °F - 28.4 °F 26% 30.01 in 10.0 mi NW 17.3 mph 20.7 mph N/A   Clear
12:35 PM 66.2 °F - 28.4 °F 24% 30.01 in 9.0 mi NW 15.0 mph - N/A   Clear
12:55 PM 66.2 °F - 28.4 °F 24% 30.00 in 10.0 mi NW 16.1 mph 21.9 mph N/A   Clear
1:15 PM 66.2 °F - 32.0 °F 28% 30.00 in 10.0 mi NW 16.1 mph 21.9 mph N/A   Clear
1:35 PM 66.2 °F - 32.0 °F 28% 30.00 in 10.0 mi NW 15.0 mph 21.9 mph N/A   Clear
1:55 PM 66.2 °F - 32.0 °F 28% 30.00 in 10.0 mi NW 12.7 mph 21.9 mph N/A   Clear
2:15 PM 66.2 °F - 32.0 °F 28% 30.00 in 10.0 mi NW 16.1 mph 23.0 mph N/A   Clear
2:35 PM 66.2 °F - 32.0 °F 28% 30.00 in 10.0 mi NW 17.3 mph 21.9 mph N/A   Clear
2:55 PM 66.2 °F - 32.0 °F 28% 29.99 in 10.0 mi NW 18.4 mph - N/A   Clear
3:15 PM 66.2 °F - 32.0 °F 28% 29.99 in 10.0 mi NW 15.0 mph - N/A   Clear
3:35 PM 66.2 °F - 32.0 °F 28% 29.99 in 10.0 mi NW 15.0 mph 23.0 mph N/A   Clear
3:55 PM 66.2 °F - 32.0 °F 28% 29.99 in 10.0 mi NW 16.1 mph - N/A   Clear
4:15 PM 66.2 °F - 32.0 °F 28% 29.99 in 10.0 mi NW 17.3 mph 20.7 mph N/A   Clear
4:35 PM 66.2 °F - 32.0 °F 28% 29.99 in 10.0 mi NW 17.3 mph 23.0 mph N/A   Clear
4:55 PM 66.2 °F - 32.0 °F 28% 29.99 in 10.0 mi NW 17.3 mph 20.7 mph N/A   Clear
5:15 PM 64.4 °F - 32.0 °F 30% 29.98 in 10.0 mi NW 15.0 mph 21.9 mph N/A   Clear
5:35 PM 64.4 °F - 32.0 °F 30% 29.98 in 10.0 mi NW 16.1 mph 19.6 mph N/A   Clear
5:55 PM 64.4 °F - 32.0 °F 30% 29.98 in 10.0 mi NW 16.1 mph - N/A   Clear
6:15 PM 64.4 °F - 30.2 °F 28% 29.98 in 10.0 mi NW 16.1 mph 20.7 mph N/A   Clear
6:35 PM 62.6 °F - 30.2 °F 30% 29.98 in 10.0 mi NW 15.0 mph 20.7 mph N/A   Clear
6:55 PM 62.6 °F - 30.2 °F 30% 29.98 in 10.0 mi NW 17.3 mph 21.9 mph N/A   Clear
7:15 PM 60.8 °F - 30.2 °F 31% 29.99 in 10.0 mi NW 11.5 mph - N/A   Clear
7:35 PM 59.0 °F - 30.2 °F 34% 29.99 in 10.0 mi WNW 10.4 mph - N/A   Clear
7:55 PM 57.2 °F - 32.0 °F 38% 29.99 in 10.0 mi West 12.7 mph - N/A   Clear
8:15 PM 57.2 °F - 32.0 °F 38% 29.99 in 10.0 mi West 10.4 mph - N/A   Clear
8:35 PM 55.4 °F - 32.0 °F 41% 29.99 in 10.0 mi West 9.2 mph - N/A   Clear
8:55 PM 55.4 °F - 32.0 °F 41% 30.00 in 10.0 mi West 11.5 mph - N/A   Clear
9:15 PM 53.6 °F - 32.0 °F 44% 30.00 in 10.0 mi West 11.5 mph - N/A   Clear
9:35 PM 55.4 °F - 32.0 °F 41% 30.01 in 10.0 mi WNW 9.2 mph - N/A   Clear
9:55 PM 55.4 °F - 30.2 °F 38% 30.01 in 10.0 mi WNW 10.4 mph - N/A   Clear
10:15 PM 55.4 °F - 28.4 °F 36% 30.01 in 10.0 mi NW 10.4 mph - N/A   Clear
10:35 PM 53.6 °F - 28.4 °F 38% 30.02 in 10.0 mi NW 11.5 mph - N/A   Clear
10:55 PM 53.6 °F - 30.2 °F 41% 30.02 in 10.0 mi WNW 8.1 mph - N/A   Clear
11:15 PM 50.0 °F - 28.4 °F 43% 30.02 in 10.0 mi WNW 8.1 mph - N/A   Clear
11:35 PM 50.0 °F - 28.4 °F 43% 30.01 in 10.0 mi West 10.4 mph - N/A   Clear
11:55 PM 50.0 °F - 28.4 °F 43% 30.01 in 10.0 mi West 9.2 mph - N/A   Clear